Flag for Portugal Weather past 2 weeks in Porto, Portugal

Now
55 °F

Drizzle. Low clouds.


Feels Like: 53 °F
Forecast: N/A
Wind: 10 mph from South

Location: Porto / Pedras Rubras

Current Time: Mar 2, 2015 at 5:08:30 PM

Latest Report: Mar 2, 2015 at 4:30 PM


Visibility: 1 mi

Pressure: 30.30 "Hg

Humidity: 100%

Dew point: 55 °F

Location of PortoLocation

Historic Weather in Porto — Graph

°F

Porto temperature yesterday

Maximum temperature yesterday: 55 °F (at 11:30 AM)
Minimum temperature yesterday: 54 °F (at 12:00 AM)
Average temperature yesterday: 55 °F

Past Weeks' High & Low Weather Summary

 TemperatureHumidityPressure
High61 °F (Feb 19, 1:00 PM)100% (Feb 16, 1:30 AM)30.60 "Hg (Feb 16, 1:30 AM)
Low37 °F (Feb 18, 2:00 AM)31% (Feb 18, 2:30 PM)29.92 "Hg (Feb 21, 1:00 AM)
Average51 °F84%30.32 "Hg
* Reported Feb 15 3:00 PM — Mar 2 3:30 PM, Porto, Weather by CustomWeather, © 2015

Note: Actual official high and low records may vary slightly from our data, if they occured in-between our weather recording intervals... More about our weather records

Advertising

Porto weather history for previous 24 hours

 ConditionsComfort  
Time TempWeatherWind HumidityBarometerVisibility
3:30 PM
Mon, Mar 2
55 °FDrizzle. Fog.10 mph100%30.30 "Hg1 mi
3:00 PM55 °FDrizzle. Fog.8 mph100%30.30 "Hg1 mi
2:30 PM55 °FDrizzle. Fog.9 mph100%30.30 "Hg1 mi
2:00 PM55 °FDrizzle. Fog.10 mph100%30.30 "Hg1 mi
1:30 PM55 °FDrizzle. Fog.9 mph100%30.33 "Hg1 mi
1:00 PM55 °FDrizzle. Fog.10 mph100%30.33 "Hg1 mi
12:30 PM55 °FDrizzle. Fog.10 mph100%30.33 "Hg1 mi
12:00 PM55 °FDrizzle. Low clouds.10 mph100%30.33 "Hg1 mi
11:30 AM55 °FLow clouds.8 mph100%30.33 "Hg4 mi
11:00 AM55 °FDrizzle. Fog.9 mph100%30.33 "Hg2 mi
10:30 AM55 °FDrizzle. Low clouds.9 mph100%30.33 "Hg1 mi
10:00 AM55 °FDrizzle. Low clouds.10 mph100%30.33 "Hg1 mi
9:30 AM55 °FDrizzle. Fog.9 mph100%30.33 "Hg1 mi
9:00 AM55 °FDrizzle. Mostly cloudy.9 mph100%30.33 "Hg1 mi
8:30 AM55 °FDrizzle. More clouds than sun.9 mph100%30.30 "Hg1 mi
8:00 AM55 °FDrizzle. Mostly cloudy.9 mph100%30.30 "Hg1 mi
7:30 AM55 °FDrizzle. Fog.9 mph100%30.30 "Hg1 mi
7:00 AM55 °FDrizzle. Fog.9 mph100%30.30 "Hg1 mi
6:30 AM55 °FDrizzle. Fog.9 mph100%30.30 "Hg1 mi
6:00 AM55 °FDrizzle. Fog.9 mph100%30.30 "Hg2 mi
5:30 AM55 °FDrizzle. Fog.9 mph100%30.30 "Hg2 mi
5:00 AM55 °FDrizzle. Fog.9 mph100%30.27 "Hg1 mi
4:30 AM55 °FFog.10 mph100%30.27 "Hg1 mi
4:00 AM55 °FDrizzle. Fog.9 mph100%30.27 "Hg2 mi
3:30 AM55 °FDrizzle. Fog.9 mph100%30.27 "Hg2 mi
3:00 AM55 °FDrizzle. Fog.10 mph100%30.30 "Hg1 mi
2:30 AM54 °FDrizzle. Fog.9 mph100%30.30 "Hg2 mi
2:00 AM55 °FDrizzle. Fog.12 mph100%30.30 "Hg2 mi
1:30 AM55 °FFog.9 mph100%30.30 "Hg1 mi
1:00 AM55 °FFog.9 mph100%30.30 "Hg2 mi
12:30 AM55 °FDrizzle. Fog.10 mph100%30.30 "Hg2 mi
12:00 AM55 °FFog.10 mph100%30.30 "Hg2 mi
11:30 PM
Sun, Mar 1
55 °FFog.10 mph100%30.33 "Hg2 mi
11:00 PM55 °FFog.10 mph100%30.33 "Hg3 mi
10:30 PM55 °FLow clouds.9 mph100%30.33 "Hg4 mi
10:00 PM55 °FFog.10 mph100%30.33 "Hg2 mi
9:30 PM55 °FFog.10 mph100%30.33 "Hg1 mi
9:00 PM55 °FSnow. Fog.10 mph100%30.33 "Hg2 mi
8:30 PM55 °FSnow. Fog.10 mph100%30.30 "Hg1 mi
8:00 PM55 °FFog.10 mph100%30.30 "Hg2 mi
7:30 PM55 °FDrizzle. Fog.9 mph100%30.30 "Hg2 mi
7:00 PM55 °FDrizzle. Fog.10 mph100%30.30 "Hg2 mi
6:30 PM55 °FDrizzle. Fog.10 mph100%30.30 "Hg1 mi
6:00 PM55 °FDrizzle. Fog.12 mph100%30.30 "Hg1 mi
5:30 PM55 °FDrizzle. Fog.10 mph100%30.30 "Hg1 mi
5:00 PM55 °FDrizzle. Fog.10 mph100%30.27 "Hg1 mi
Weather by CustomWeather, © 2015

See weather overviewHow to use our weather pages